ONEWEB-0219 (48223 NORAD) Tracking and Keplerian Element Data

This shows tracking and keplerian element data for the satellite.

Feedback or suggestion? Click here.




ElementValue
Catalog48223
NameONEWEB-0219
Epoch Orbit191
Epoch Day173.83334491
Epoch Year2021
RAAN294.0616
Inclination87.6478
Eccentricity0.0012552
Argument of Perigee52.8734
Mean Anonmoly19.5748
Mean Motion14.55938652
Decay Rate-0.00892093
L11 48223U 21031P 21173.83334491 -.00892093 00000-0 -21564+0 0 9995
L22 48223 87.6478 294.0616 0012552 52.8734 19.5748 14.55938652 1916

Live tracking and technical data element details for ONEWEB-0219 (NORAD 48223). ONEWEB-0219 can be tracked NOW for your location showing map with azimuth and elevation plus other details from your city location.

Track the satellite on the map from your city or location and see movement details for azimuth, elevation, latitude, longitude, range, height, and movement on the map or in text.







IsCatalogInMostPopularTable: catalog: 48223, numindb: 24
Update: records affected: 1



GetName: 48223 ONEWEB-0219

Hit Count: updated at: Thu, 24 Jun 2021 04:11:10 GMT